Location: Omaha
(41.2590°N, 95.9380°W)
Time: 01:37:53
(UTC-05:00)

Tiangong 1 - Pass Details

Date: 15 October 2017
Orbit: 292 x 320 km, 42.8° (Epoch: 21 October)

Event Time Altitude Azimuth Distance (km) Brightness Sun altitude
Rises 19:11:27 0° 283° (WNW) 2,050 6.4 -6.2°
Reaches altitude 10° 19:13:27 10° 280° (W) 1,214 5.1 -6.6°
Maximum altitude 19:16:08 62° 199° (SSW) 357 1.0 -7.1°
Drops below altitude 10° 19:18:47 10° 117° (ESE) 1,195 3.0 -7.6°
Enters shadow 19:19:09 - 116° (ESE) 1,342 3.3 -7.7°
